Home > Weather > Mo i Rana > Past weeks

Flag for Norway Past Weather in Mo i Rana, Norway — Yesterday and Last 2 Weeks

Now
61 °F

Passing clouds.


Feels Like: 61 °F
Forecast: 58 / 74 °F
Wind: 2 mph from North

Location: Mo I Rana / Rossvoll

Current Time: Jun 30, 2016 at 1:35:40 AM

Latest Report: Jun 29, 2016 at 10:50 PM


Visibility: N/A

Pressure: 29.80 "Hg

Humidity: 68%

Dew Point: 50 °F

Location of Mo i RanaLocation

Past Weather in Mo i Rana — Graph

°F

Mo i Rana Temperature Yesterday

Maximum temperature yesterday: 66 °F (at 3:50 PM)
Minimum temperature yesterday: 50 °F (at 5:50 AM)
Average temperature yesterday: 61 °F

High & Low Weather Summary for the Past Weeks

 TemperatureHumidityPressure
High79 °F (Jun 26, 5:50 PM)100% (Jun 23, 10:20 PM)30.12 "Hg (Jun 23, 10:20 PM)
Low41 °F (Jun 15, 5:50 AM)28% (Jun 26, 5:20 PM)29.62 "Hg (Jun 17, 3:20 PM)
Average58 °F67%29.85 "Hg
* Reported Jun 14 10:20 PM — Jun 29 10:50 PM, Mo i Rana, Weather by CustomWeather, © 2016

Note: Actual official high and low records may vary slightly from our data, if they occured in-between our weather recording intervals... More about our weather records

Advertising

Mo i Rana Weather History for the Previous 24 Hours

Scroll right to see more
 ConditionsComfort  
Time TempWeatherWind HumidityBarometerVisibility
10:50 PM
Wed, Jun 29
61 °FPassing clouds.2 mph68%29.80 "HgN/A
9:50 PM64 °FPassing clouds.2 mph60%29.80 "HgN/A
9:20 PM64 °FPassing clouds.8 mph60%29.80 "HgN/A
8:50 PM66 °FPassing clouds.7 mph56%29.80 "HgN/A
8:20 PM66 °FPassing clouds.8 mph56%29.80 "HgN/A
7:50 PM66 °FPassing clouds.7 mph52%29.80 "HgN/A
7:20 PM66 °FPassing clouds.8 mph52%29.80 "HgN/A
6:50 PM66 °FPassing clouds.8 mph52%29.80 "HgN/A
6:20 PM66 °FPassing clouds.9 mph56%29.83 "HgN/A
5:20 PM66 °FScattered clouds.9 mph56%29.83 "HgN/A
4:50 PM66 °FScattered clouds.6 mph52%29.83 "HgN/A
4:20 PM66 °FScattered clouds.3 mph52%29.86 "HgN/A
3:50 PM66 °FScattered clouds.3 mph52%29.86 "HgN/A
3:20 PM64 °FScattered clouds.6 mph56%29.86 "HgN/A
2:50 PM63 °FPartly sunny.2 mph59%29.89 "HgN/A
2:20 PM61 °FPartly sunny.2 mph63%29.89 "HgN/A
1:50 PM63 °FBroken clouds.2 mph59%29.89 "HgN/A
12:50 PM63 °FBroken clouds.2 mph59%29.92 "HgN/A
12:20 PM61 °FBroken clouds.2 mph63%29.92 "HgN/A
11:50 AM57 °FBroken clouds.2 mph67%29.92 "HgN/A
11:20 AM57 °FBroken clouds.5 mph67%29.92 "HgN/A
10:50 AM55 °FBroken clouds.3 mph77%29.92 "HgN/A
9:50 AM55 °FBroken clouds.2 mph77%29.92 "HgN/A
9:20 AM55 °FPartly sunny.1 mph72%29.92 "HgN/A
8:50 AM54 °FScattered showers. Partly sunny.2 mph77%29.92 "HgN/A
8:20 AM54 °FScattered showers. Partly sunny.2 mph82%29.92 "HgN/A
7:50 AM52 °FScattered showers. Partly sunny.1 mph88%29.92 "HgN/A
6:50 AM52 °FScattered showers. Partly sunny.No wind94%29.92 "HgN/A
5:50 AM50 °FScattered showers. Partly sunny.1 mph100%29.92 "HgN/A
Weather by CustomWeather, © 2016

See weather overviewHow to use our weather pages